{"data":{"norad_id":59209,"intl_designator":"2024-046J","name":"STARLINK-31601","alt_names":[],"object_type":"PAYLOAD","status":"ACTIVE","operator":null,"country":"US","launch_date":"2024-03-11","launch_site_code":"AFWTR","launch_vehicle":null,"mission":null,"orbit_class":"UNKNOWN","rcs_meters":null,"size_class":null,"mass_kg":null,"dimensions":null,"purposes":["comms"],"wikipedia_slug":null,"has_3d_model":false,"image_url":null,"decayed_at":null,"tle_current":{"epoch":"2026-09-20T10:36:59.152320Z","epoch_age_seconds":163832,"freshness":"FRESH","line1":"1 59209U 24046J   26263.44235130  .00000476  00000+0  25227-4 0  9990","line2":"2 59209  53.1616 326.0112 0001167  84.5351 275.5784 15.34392278142936","mean_motion":15.34392278,"eccentricity":0.0001167,"inclination_deg":53.1616,"raan_deg":326.0112,"arg_perigee_deg":84.5351,"mean_anomaly_deg":275.5784,"bstar":2.5227e-5,"rev_number":14293,"period_min":93.848230380628,"perigee_km":461.92786298022,"apogee_km":463.52452044917,"semimajor_km":6840.8631917147,"source":"CELESTRAK","updated_at":"2026-09-21T09:00:34.069760Z"}}}